Preview of NWS' New Version of Forecast
This preview is not operational and should not be used for support decisions.

Regional Weather Roundup (RWR)

Issued by National Weather Service (NWS)

                            
000
ASUS43 KMKX 221310
RWRWI 

WISCONSIN REGIONAL WEATHER ROUNDUP
NATIONAL WEATHER SERVICE MILWAUKEE/SULLIVAN WI
800 AM CDT MON APR 22 2019

NOTE: "FAIR" INDICATES FEW OR NO CLOUDS BELOW 12,000 FEET WITH NO
SIGNIFICANT WEATHER AND/OR OBSTRUCTIONS TO VISIBILITY.

WIZ001-002-006>008-014>016-023>028-221400-
NORTHWEST WISCONSIN
  
CITY           SKY/WX    TMP DP  RH WIND       PRES   REMARKS
SUPERIOR ARPT  LGT RAIN  36  34  93 NE14G23   30.12S WCI  27          
ASHLAND        RAIN      37  37 100 NE12      30.13R FOG     WCI  29  
HAYWARD        LGT RAIN  41  39  93 NE13      30.03F                  
SIREN          LGT RAIN  42  41  95 NE12G17   30.01S                  
CUMBERLAND     CLOUDY    43  41  93 NE10G16   29.99R                  
RICE LAKE      PTSUNNY   45  38  77 NE12      29.99S                  
CHETEK         CLOUDY    45  42  89 NE6       29.97S                  
LADYSMITH      PTSUNNY   44  42  92 NE10      30.01F                  
EAU CLAIRE     CLOUDY    49  37  63 E15       29.93F                  
MENOMONIE      CLOUDY    47  34  61 NE10      29.94F                  
NEW RICHMOND   LGT RAIN  45  42  89 N14       29.96F                  
OSCEOLA        CLOUDY    45  43  94 N17       29.98F                  
$$
 
WIZ003>005-009-010-017-018-221400-
NORTH CENTRAL WISCONSIN
  
CITY           SKY/WX    TMP DP  RH WIND       PRES   REMARKS
MANITOWISH WTR CLOUDY    38  38 100 NE8       30.05R WCI  33          
ARBOR VITAE    PTSUNNY   42  40  93 NE6       30.05R                  
WOODRUFF       PTSUNNY   42  40  93 NE6       30.05R                  
RHINELANDER    CLOUDY    44  35  70 E8        30.03R                  
EAGLE RIVER    CLOUDY    40  40  99 NE6       30.05R                  
LAND O LAKES   CLOUDY    40  40 100 NE7       30.07F FOG     WCI  35  
PHILLIPS       CLOUDY    41  41 100 NE9       30.02S                  
TOMAHAWK       CLOUDY    43  36  76 CALM      30.02S                  
MEDFORD        DRIZZLE   44  35  70 E9        29.99R                  
MERRILL        CLOUDY    44  39  84 NE3       30.01F                  
$$
 
WIZ029-030-035-036-043>047-221400-
CENTRAL WISCONSIN
  
CITY           SKY/WX    TMP DP  RH WIND       PRES   REMARKS
WAUSAU         NOT AVBL                                               
MOSINEE        PTSUNNY   45  34  65 E9        30.00S                  
MARSHFIELD     PTSUNNY   46  36  68 E10       29.97S                  
STEVENS POINT  PTSUNNY   44  34  67 E8        30.00S                  
WAUPACA        PTSUNNY   47  37  67 NE6       30.01F                  
WAUTOMA        FAIR      47  38  71 NE8       29.99F                  
WISC RAPIDS    FAIR      47  33  58 E9        29.98S                  
CAMP DOUGLAS   PTSUNNY   55  45  67 E7        29.93F                  
$$
 
WIZ011>013-019>022-031-037>040-048>050-221400-
NORTHEAST WISCONSIN
  
CITY           SKY/WX    TMP DP  RH WIND       PRES   REMARKS
ANTIGO         CLOUDY    45  35  68 E9        30.02S                  
SHAWANO        FAIR      48  39  69 NE7       30.03S                  
OCONTO         FAIR      45  35  67 E5        30.03F                  
STURGEON BAY   CLOUDY    44  37  76 E9        30.04F                  
GREEN BAY      FAIR      47  37  68 NE13      30.03S                  
MANITOWOC      FAIR      47  40  76 E5        30.03S                  
APPLETON       PTSUNNY   45  34  65 NE8       30.00S                  
CLINTONVILLE   FAIR      47  35  63 NE6       30.03R                  
OSHKOSH        FAIR      48  40  73 NE7       30.00S                  
$$
 
WIZ032>034-041-042-053>061-221400-
SOUTHWEST WISCONSIN
  
CITY           SKY/WX    TMP DP  RH WIND       PRES   REMARKS
LA CROSSE      FAIR      64  45  49 E8        29.88S                  
SPARTA         FAIR      62  47  58 E7        29.92S                  
VIROQUA        FAIR      62  47  60 SE10      29.90F                  
BOSCOBEL       FAIR      65  47  52 CALM      29.92S                  
PRAIRIE DU CHI FAIR      62  46  55 E6        29.89F                  
PLATTEVILLE    FAIR      60  49  66 SE10      29.94F                  
$$

WIZ056-057-062-063-064-067-068-221400-
SOUTH CENTRAL WISCONSIN
  
CITY           SKY/WX    TMP DP  RH WIND       PRES   REMARKS
REEDSBURG      FAIR      62  45  55 E7        29.94S                  
BARABOO/DELLS  FAIR      61  43  52 SE5       29.95S                  
LONE ROCK      FAIR      59  48  67 E8        29.94S                  
MINERAL POINT  FAIR      59  48  67 SE13      29.95S                  
MADISON        PTSUNNY   59  43  55 S10       29.97R                  
MIDDLETON      FAIR      61  44  53 S12G17    29.97F                  
WATERTOWN      FAIR      60  44  54 S8G16     29.99S                  
MONROE         FAIR      57  43  60 MISG      29.98S                  
JANESVILLE     PTSUNNY   61  45  55 SE13      30.00R                  
$$
 
WIZ051-052-058>065-066-070>072-221400-
SOUTHEAST WISCONSIN
  
CITY           SKY/WX    TMP DP  RH WIND       PRES   REMARKS
MILWAUKEE      PTSUNNY   56  41  57 SE8       30.02S                  
WAUKESHA       SUNNY     61  39  44 S12       30.01F                  
MILWAUKEE/TIMM SUNNY     59  36  41 S6        30.02S                  
RACINE         FAIR      51  38  60 S12       30.04S                  
KENOSHA        FAIR      61  44  53 SE6       30.02F                  
FOND DU LAC    FAIR      53  44  71 N5        29.99F                  
SHEBOYGAN      FAIR      50  39  66 S3        30.01S                  
WEST BEND      FAIR      55  39  54 SE3       30.00F                  
JUNEAU         FAIR      60  44  55 S10       30.00S                  
$$

LSZ147-162-221400-
LAKE SUPERIOR
  
STATION/POSITION TIME  TEMP    WIND        PRES    WAVE
                       AIR SEA DIR/SP/G            HT/PER
                 (UTC) (F)     (DEG/KT/KT) (MB)    (FT/S)
$$
 
LMZ867-665-643>646-221400-
LAKE MICHIGAN
  
STATION/POSITION TIME  TEMP    WIND        PRES    WAVE
                       AIR SEA DIR/SP/G            HT/PER
                 (UTC) (F)     (DEG/KT/KT) (MB)    (FT/S)
NORTHPORT PIER   1240   40     150/  5/  7 1017.3F
KEWAUNEE LAKESHO 1248   43      50/  6/  9 1016.2R
SHEBOYGAN LAKESH 1300   42     170/ 10/ 12 1016.9R
MILWAUKEE LAKESH 1250   44                   N/A
KENOSHA   LAKESH 1200   46     170/ 14/ 16 1016.9
$$

TC  - TEMPERATURE IN CELSIUS
VSB - VISIBILITY IN STATUTE MILES
WCI - WIND CHILL INDEX
HX  - HEAT INDEX